Вернуться в каталог

KINEIS-4E

АктивенСвязьSSO
NORAD 63300·PAYLOAD·🇫🇷 France

Запущен Mar 18, 2025 с Rocket Lab Launch Complex 1

Loading…

Ближайшие Пролёты (ближайшие 24 часа)

TLE

СвежийSource: Space-Track

Эпоха: Sep 14, 2026, 22:59 UTC

1 63300U 25056A   26257.95796181  .00001203  00000-0  19790-3 0  9993
2 63300  97.9138  19.4138 0001117 177.2978 182.8235 14.72308767 80336

Отслеживайте KINEIS-4E в реальном времени с AllMySat

Download on the App Store